"Pseudo-MPEC" for Hna2VO1

Created 2022 Dec 5 3:22:13 UT using Find_Orb

Click here for an explanation of pseudo-MPECs

 
 Astrometry: 
     Hna2VO1*KC2022 11 14N'!X#)e44#R`;Astrometry*ZsK1redacted;m\sdtR:g1q*9x+q221
     Hna2VO1 KC2022 11 14Uhclick]j#:v=Xhere7G9dr$WTwu))9CJJn.G95V\rF_gBVE3#8w221
     Hna2VO1 KC2022 11 14uT)m)2PforB0explanationGX.eYT6^'6wnYS9l0,D_HRhp\UF$?221

Station data:
(221) IAS Observatory, Hakos  (S23.236367 E16.361700)  Namibia.  Observers D.
   Husar, L. Demetz. Measurer D. Husar. 0.2-m f/3 Riccardi-Honders + CCD0.5-m
   f/6.8 Corrected Dall-Kirkham + CCD.

Orbital elements:  Hna2VO1
   Perihelion 2023 May 25.08898 +/- 127 TT =  2:08:07 (JD 2460089.58898)
Epoch 2022 Nov 15.0 TT = JDT 2459898.5   Earth MOID: 0.3828   AutoNEOCP
M 263.45293949 +/- 90               (J2000 ecliptic)
n   0.50524661 +/- 0.378            Peri.  122.81869 +/- 90
a   1.56123078 +/- 0.779            Node    32.13960 +/- 23
e   0.1571913 +/- 0.284             Incl.   25.09154 +/- 22
P   1.95/712.51d           H 19.6   G  0.15   U 12.1  SR
q 1.31581882 +/- 0.687    Q 1.80664274 +/- 32.7
From 3 observations 2022 Nov. 14 (23.6 min); mean residual 0".02
Residuals in arcseconds: 
221114 221  .00   .02+    221114 221  .00   .04-    221114 221  .00   .02+    

Ephemerides (geocentric):
Date (UTC) HH   RA             Dec           delta  r     elong  mag " sig PA
---- --------  ------------   ------------  ------ ------ -----  --- --------
2022 12 05 03  00 42 57.579   +21 24 08.34  .80348 1.5841 124.3 21.5  24d 173
2022 12 05 04  00 42 55.825   +21 24 37.71  .80376 1.5840 124.3 21.5  24d 173
2022 12 05 05  00 42 54.078   +21 25 07.08  .80404 1.5839 124.2 21.5  24d 173
2022 12 05 06  00 42 52.338   +21 25 36.45  .80432 1.5838 124.2 21.5  24d 173
2022 12 05 07  00 42 50.605   +21 26 05.81  .80460 1.5838 124.1 21.5  24d 173
2022 12 05 08  00 42 48.878   +21 26 35.17  .80488 1.5837 124.1 21.5  24d 173
2022 12 05 09  00 42 47.159   +21 27 04.53  .80516 1.5836 124.0 21.5  24d 173
2022 12 05 10  00 42 45.447   +21 27 33.89  .80544 1.5835 124.0 21.5  24d 173
2022 12 05 11  00 42 43.741   +21 28 03.24  .80572 1.5834 123.9 21.5  24d 173
2022 12 05 12  00 42 42.043   +21 28 32.60  .80600 1.5833 123.9 21.5  24d 173
2022 12 05 13  00 42 40.351   +21 29 01.95  .80628 1.5832 123.9 21.5  24d 173
2022 12 05 14  00 42 38.666   +21 29 31.30  .80656 1.5831 123.8 21.5  24d 173
2022 12 05 15  00 42 36.989   +21 30 00.64  .80685 1.5830 123.8 21.5  25d 173
2022 12 05 16  00 42 35.318   +21 30 29.99  .80713 1.5830 123.7 21.5  25d 173
2022 12 05 17  00 42 33.654   +21 30 59.33  .80741 1.5829 123.7 21.5  25d 173
2022 12 05 18  00 42 31.997   +21 31 28.67  .80769 1.5828 123.6 21.5  25d 173
2022 12 05 19  00 42 30.347   +21 31 58.01  .80797 1.5827 123.6 21.5  25d 173
2022 12 05 20  00 42 28.703   +21 32 27.35  .80826 1.5826 123.5 21.5  25d 173
2022 12 05 21  00 42 27.067   +21 32 56.69  .80854 1.5825 123.5 21.5  25d 173
2022 12 05 22  00 42 25.437   +21 33 26.02  .80882 1.5824 123.5 21.5  25d 173
2022 12 05 23  00 42 23.815   +21 33 55.35  .80910 1.5823 123.4 21.5  25d 173
2022 12 06 00  00 42 22.199   +21 34 24.68  .80939 1.5822 123.4 21.5  25d 173
2022 12 06 01  00 42 20.590   +21 34 54.01  .80967 1.5822 123.3 21.5  25d 173
2022 12 06 02  00 42 18.988   +21 35 23.34  .80995 1.5821 123.3 21.5  25d 173
2022 12 06 03  00 42 17.393   +21 35 52.66  .81024 1.5820 123.2 21.5  25d 173
2022 12 06 04  00 42 15.805   +21 36 21.98  .81052 1.5819 123.2 21.5  25d 172
2022 12 06 05  00 42 14.223   +21 36 51.31  .81080 1.5818 123.1 21.5  25d 172
2022 12 06 06  00 42 12.649   +21 37 20.63  .81109 1.5817 123.1 21.5  25d 172
2022 12 06 07  00 42 11.081   +21 37 49.94  .81137 1.5816 123.1 21.5  25d 172
2022 12 06 08  00 42 09.520   +21 38 19.26  .81165 1.5815 123.0 21.5  25d 172
2022 12 06 09  00 42 07.966   +21 38 48.57  .81194 1.5814 123.0 21.5  25d 172
2022 12 06 10  00 42 06.419   +21 39 17.89  .81222 1.5814 122.9 21.5  25d 172
2022 12 06 11  00 42 04.879   +21 39 47.20  .81251 1.5813 122.9 21.5  25d 172
2022 12 06 12  00 42 03.345   +21 40 16.51  .81279 1.5812 122.8 21.5  25d 172
2022 12 06 13  00 42 01.819   +21 40 45.82  .81308 1.5811 122.8 21.5  25d 172
2022 12 06 14  00 42 00.299   +21 41 15.13  .81336 1.5810 122.8 21.5  25d 172
2022 12 06 15  00 41 58.786   +21 41 44.43  .81365 1.5809 122.7 21.5  25d 172
2022 12 06 16  00 41 57.280   +21 42 13.74  .81393 1.5808 122.7 21.5  25d 172
2022 12 06 17  00 41 55.780   +21 42 43.04  .81422 1.5807 122.6 21.5  25d 172
2022 12 06 18  00 41 54.288   +21 43 12.34  .81450 1.5806 122.6 21.5  25d 172
2022 12 06 19  00 41 52.802   +21 43 41.64  .81479 1.5806 122.5 21.5  25d 172
2022 12 06 20  00 41 51.323   +21 44 10.94  .81507 1.5805 122.5 21.5  25d 172
2022 12 06 21  00 41 49.851   +21 44 40.24  .81536 1.5804 122.4 21.5  25d 172
2022 12 06 22  00 41 48.386   +21 45 09.53  .81564 1.5803 122.4 21.5  25d 172
2022 12 06 23  00 41 46.927   +21 45 38.83  .81593 1.5802 122.4 21.5  26d 172
2022 12 07 00  00 41 45.476   +21 46 08.12  .81622 1.5801 122.3 21.5  26d 172
2022 12 07 01  00 41 44.031   +21 46 37.41  .81650 1.5800 122.3 21.5  26d 172
2022 12 07 02  00 41 42.592   +21 47 06.71  .81679 1.5799 122.2 21.5  26d 172